Home   Weather   Norrköping   Past weeks

Flag for Sweden Past Weather in Norrköping, Sweden — Yesterday and Last 2 Weeks

45 °F

Passing clouds.

Feels Like: 38 °F
Forecast: 41 / 43 °F
Wind: 15 mph from East

Location: Norrkoping Airport

Current Time: Oct 21, 2016 at 6:45:51 PM

Latest Report: Oct 21, 2016 at 6:20 PM

Visibility: N/A

Pressure: 30.27 "Hg

Humidity: 71%

Dew Point: 36 °F

Location of NorrköpingLocation

Past Weather in Norrköping — Graph


Norrköping Temperature Yesterday

Maximum temperature yesterday: 48 °F (at 12:50 PM)
Minimum temperature yesterday: 43 °F (at 9:50 PM)
Average temperature yesterday: 46 °F

High & Low Weather Summary for the Past Weeks

High55 °F (Oct 7, 12:50 PM)100% (Oct 9, 10:20 AM)30.54 "Hg (Oct 9, 10:20 AM)
Low41 °F (Oct 13, 3:20 AM)44% (Oct 6, 5:20 PM)30.09 "Hg (Oct 19, 4:50 AM)
Average46 °F79%30.39 "Hg
* Reported Oct 6 5:20 PM — Oct 21 5:50 PM, Norrköping, Weather by CustomWeather, © 2016

Note: Actual official high and low records may vary slightly from our data, if they occured in-between our weather recording intervals... More about our weather records


Norrköping Weather History for the Previous 24 Hours

Scroll right to see more
Time TempWeatherWind HumidityBarometerVisibility
5:50 PM
Fri, Oct 21
45 °FPassing clouds.15 mph71%30.27 "HgN/A
5:20 PM45 °FBroken clouds.17 mph71%30.27 "HgN/A
4:50 PM45 °FPartly sunny.17 mph71%30.27 "HgN/A
4:20 PM45 °FMostly cloudy.17 mph71%30.27 "HgN/A
3:50 PM45 °FScattered clouds.17 mph76%30.24 "HgN/A
3:20 PM45 °FScattered clouds.20 mph71%30.24 "HgN/A
2:50 PM45 °FBroken clouds.20 mph71%30.27 "HgN/A
2:20 PM46 °FPartly sunny.20 mph71%30.24 "HgN/A
1:50 PM45 °FMostly cloudy.17 mph76%30.24 "HgN/A
1:20 PM45 °FFog.20 mph76%30.27 "Hg6 mi
12:50 PM46 °FScattered showers. Fog.17 mph71%30.27 "Hg6 mi
12:20 PM45 °FFog.18 mph81%30.24 "Hg6 mi
11:50 AM46 °FFog.16 mph76%30.24 "Hg6 mi
11:20 AM46 °FFog.16 mph76%30.24 "Hg6 mi
10:50 AM45 °FFog.16 mph87%30.24 "Hg6 mi
10:20 AM45 °FFog.15 mph87%30.24 "Hg6 mi
9:50 AM45 °FBroken clouds.12 mph93%30.24 "HgN/A
9:20 AM45 °FDrizzle. Broken clouds.15 mph93%30.24 "Hg5 mi
8:50 AM45 °FDrizzle. Mostly cloudy.12 mph93%30.24 "Hg4 mi
8:20 AM45 °FFog.12 mph93%30.24 "Hg6 mi
7:50 AM45 °FFog.10 mph93%30.24 "Hg5 mi
7:20 AM45 °FLight rain. Partly cloudy.12 mph93%30.24 "Hg3 mi
6:50 AM45 °FLight rain. Mostly cloudy.10 mph93%30.24 "Hg2 mi
6:20 AM45 °FFog.9 mph93%30.24 "Hg4 mi
5:50 AM45 °FFog.10 mph93%30.24 "Hg6 mi
5:20 AM45 °FDrizzle. Mostly cloudy.12 mph93%30.24 "Hg4 mi
4:50 AM45 °FFog.12 mph93%30.24 "Hg4 mi
4:20 AM45 °FLow clouds.12 mph93%30.24 "HgN/A
3:50 AM45 °FLow clouds.10 mph93%30.24 "Hg6 mi
3:20 AM45 °FFog.12 mph93%30.24 "Hg5 mi
2:50 AM45 °FFog.12 mph93%30.27 "Hg5 mi
2:20 AM45 °FLight rain. Fog.10 mph93%30.27 "Hg6 mi
1:50 AM43 °FLight rain. Fog.10 mph100%30.27 "Hg6 mi
1:20 AM43 °FLight rain. Fog.10 mph100%30.27 "Hg6 mi
12:50 AM43 °FFog.12 mph100%30.27 "Hg3 mi
12:20 AM43 °FDrizzle. Mostly cloudy.12 mph100%30.27 "Hg4 mi
11:50 PM
Thu, Oct 20
43 °FLight rain. Mostly cloudy.12 mph93%30.27 "Hg3 mi
11:20 PM43 °FFog.13 mph93%30.27 "Hg5 mi
10:50 PM43 °FDrizzle. Overcast.12 mph93%30.27 "Hg2 mi
10:20 PM43 °FLight rain. Mostly cloudy.10 mph93%30.27 "Hg3 mi
9:50 PM43 °FLight rain. Overcast.13 mph93%30.27 "Hg3 mi
9:20 PM45 °FOvercast.13 mph81%30.27 "HgN/A
8:50 PM45 °FOvercast.12 mph81%30.27 "HgN/A
8:20 PM45 °FOvercast.12 mph81%30.27 "HgN/A
7:50 PM45 °FOvercast.12 mph76%30.27 "HgN/A
7:20 PM45 °FPassing clouds.12 mph76%30.27 "HgN/A
6:50 PM45 °FPartly cloudy.13 mph76%30.27 "HgN/A
6:20 PM45 °FPassing clouds.14 mph76%30.27 "HgN/A
Weather by CustomWeather, © 2016

See weather overviewHow to use our weather pages